Location: Menands
(42.6920°N, 73.7246°W)
Time: 01:41:55
(UTC+00:00)

NOSS 3-4 (A) - Pass Details

Date: 18 February 2026
Orbit: 769 x 1442 km, 63.4° (Epoch: 10 January)

Event Time Altitude Azimuth Distance (km) Brightness Sun altitude
Rises 22:56:49 0° 323° (NW) 3,745 6.9 -5.5°
Reaches altitude 10° 22:59:15 10° 324° (NW) 2,880 6.3 -6.0°
Maximum altitude 23:06:12 89° 238° (WSW) 1,196 4.0 -7.2°
Drops below altitude 10° 23:14:22 10° 147° (SSE) 3,353 6.0 -8.7°
Sets 23:17:23 0° 147° (SSE) 4,392 6.6 -9.2°
